Regional Weather Roundup
Issued by NWS

Home | Current Version | Previous Version | Text Only | Print | Product List | Glossary Off
Versions: 1 2 3 4 5 6 7 8 9 10 11 12 13 14 15 16 17 18 19 20 21 22 23 24 25 26 27 28 29 30 31 32 33 34 35 36 37 38 39 40 41 42 43 44 45 46 47 48 49 50

789
ASUS43 KIND 250959
RWRIN

WEATHER ROUNDUP FOR INDIANA
NATIONAL WEATHER SERVICE INDIANAPOLIS IN
500 AM EST SAT FEB 25 2017

NOTE: "FAIR" INDICATES FEW OR NO CLOUDS BELOW 12,000 FEET WITH NO
SIGNIFICANT WEATHER AND/OR OBSTRUCTIONS TO VISIBILITY.

* - STATION DOES NOT REPORT WEATHER SUCH AS PRECIPITATION OR FOG.

+ - STATION NOT QUALITY CONTROLLED BY THE NATIONAL WEATHER SERVICE.
    USE DATA WITH CAUTION...ESPECIALLY DEWPOINT AND RELATIVE
    HUMIDITY OBSERVATIONS.

INZ001>003-010>013-019-020-251100-
NORTHWEST INDIANA

CITY           SKY/WX    TMP DP  RH WIND       PRES   REMARKS
KNOX *+        CLOUDY    32  12  43 W16       29.61R WCI  21
MICHIGAN CITY+ CLOUDY    32  28  86 W13G21    29.62R WCI  22
RENSSELAER +     N/A     32  30  93 W14G24    29.64S WCI  22

$$

LMZ046-743>745-251100-
SOUTHERN LAKE MICHIGAN

STATION/POSITION TIME  TEMP    WIND        PRES    WAVE
                       AIR SEA DIR/SP/G            HT
                 (UTC) (F)     (DEG/KT/KT) (MB)    (FT)
BURNS HARBOR     0940   33     280/ 17/ 22 1003.4R
MICHIGAN CITY    0930   32     260/ 25/ 26   N/A

$$

INZ004-005-014>016-021>024-251100-
NORTH CENTRAL INDIANA

CITY           SKY/WX    TMP DP  RH WIND       PRES   REMARKS
GOSHEN         CLOUDY    37  29  72 W21G29    29.56R
PERU/GRISSOM   CLOUDY    36  34  93 W17G25    29.60R
SOUTH BEND     LGT SNOW  31  28  89 W16G28    29.58R FOG     WCI  20

$$

INZ006>009-017-018-025>027-251100-
NORTHEAST INDIANA

CITY           SKY/WX    TMP DP  RH WIND       PRES   REMARKS
ANGOLA *+      CLOUDY    37  34  87 W9        29.53S
FORT WAYNE     MOCLDY    39  34  82 SW13      29.58R
KENDALLVILLE + CLOUDY    38  32  81 W16G22    29.54S

$$

INZ028-029-035-036-043>045-051>053-251100-
WEST CENTRAL INDIANA

CITY           SKY/WX    TMP DP  RH WIND       PRES   REMARKS
LAFAYETTE      LGT SNOW  32  30  92 W15       29.66R VSB 3/4 WCI  22
TERRE HAUTE    FLURRIES  33  25  72 W20G31    29.76R WCI  21

$$

INZ030>032-037>040-046>048-054>057-064-065-251100-
CENTRAL INDIANA

CITY           SKY/WX    TMP DP  RH WIND       PRES   REMARKS
GREENWOOD *+   CLOUDY    38  28  67 W18G24    29.70R
INDIANAPOLIS   CLOUDY    35  26  69 W24G30    29.70R WCI  23
-EAGLE CREEK   CLOUDY    36  25  64 W9G21     29.69R
KOKOMO +       LGT RAIN  37  32  82 W16       29.64R
MT COMFORT *+  CLOUDY    36  27  69 W25G36    29.68R
SHELBYVILLE    CLOUDY    40  28  62 W16       29.68R

$$

INZ033-034-041-042-049-050-058-059-251100-
EAST CENTRAL INDIANA

CITY           SKY/WX    TMP DP  RH WIND       PRES   REMARKS
MUNCIE         CLOUDY    40  30  67 W14G26    29.63R

$$

INZ060-061-067>069-081>083-085>088-251100-
SOUTHWEST INDIANA

CITY           SKY/WX    TMP DP  RH WIND       PRES   REMARKS
EVANSVILLE     MOCLDY    36  22  56 W20       29.86R
HUNTINGBURG *+ CLOUDY    36  26  67 NW23G29   29.82R

$$

INZ062-063-066-070>080-084-089>092-251100-
SOUTH CENTRAL AND SOUTHEAST INDIANA

CITY           SKY/WX    TMP DP  RH WIND       PRES   REMARKS
BLOOMINGTON    CLOUDY    35  22  58 W18G29    29.74R WCI  24
MADISON *+     CLOUDY    43  32  65 SW7       29.73R
SEYMOUR +      CLOUDY    41  32  70 W16G22    29.73R

$$





USA.gov is the U.S. government's official web portal to all federal, state and local government web resources and services.